Weather History for KJFK - June, 2013

Change the Weather History Date:

Friday, June 14, 2013

  Actual Average Record
Temperature  
Mean Temperature 63 °F 70 °F  
Max Temperature 72 °F 78 °F 95 °F (2005)
Min Temperature 54 °F 63 °F 52 °F (1980)
Degree Days  
Heating Degree Days 2 1  
Month to date heating degree days 10 19  
Since 1 June heating degree days 10 19  
Since 1 July heating degree days 4706 4837  
Cooling Degree Days 0 6  
Month to date cooling degree days 40 58  
Year to date cooling degree days 66 93  
Since 1 June cooling degree days 40 58  
Growing Degree Days 13 (Base 50)    
Moisture  
Dew Point 52 °F    
Average Humidity 71    
Maximum Humidity 93    
Minimum Humidity 49    
Precipitation  
Precipitation 0.15 in 0.14 in 1.66 in (2008)
Month to date precipitation 7.34 1.98  
Year to date precipitation 20.59 19.32  
Snow  
Snow 0.00 in 0.00 in - ()
Month to date snowfall 0.0 0.0  
Since 1 July snowfall 17.6 23.8  
Snow Depth 0.00 in    
Sea Level Pressure  
Sea Level Pressure 29.73 in    
Wind  
Wind Speed 13 mph (North)    
Max Wind Speed 26 mph    
Max Gust Speed 37 mph    
Visibility 9 miles    
Events Rain    
T = Trace of Precipitation, MM = Missing Value Source: NWS Daily Summary

Daily Weather History Graph

Daily Weather History Graph

Search for Another Location

Airport or City:

Trip Planner

Search our weather history database for the weather conditions in past years. The results will help you decide how hot, cold, wet, or windy it might be!

Date:

Astronomy

Jun. 14, 2013 Rise Set
Actual Time 5:23 AM EDT 8:27 PM EDT
Civil Twilight 4:50 AM EDT 9:00 PM EDT
Nautical Twilight 4:07 AM EDT 9:43 PM EDT
Astronomical Twilight 3:17 AM EDT 10:33 PM EDT
Moon 10:57 AM EDT (6/14) No Moon Set
Length of Visible Light 16h 10m
Length of Day
15h 03m
Waxing Crescent, 30% of the Moon is Illuminated
Jun 14
Waxing Crescent
Jun 16
First Quarter
Jun 23
Full
Jun 30
Last Quarter
Jul 8
New

Hourly Weather History & Observations

Time (EDT) Temp. Dew Point Humidity Pressure Visibility Wind Dir Wind Speed Gust Speed Precip Events Conditions
12:05 AM 57.2 °F 53.6 °F 88% 29.51 in 10.0 mi NNE 19.6 mph 32.2 mph 0.01 in Rain Light Rain
12:51 AM 57.0 °F 54.0 °F 89% 29.52 in 10.0 mi NNE 20.7 mph 27.6 mph 0.02 in Rain Light Rain
1:51 AM 54.0 °F 52.0 °F 93% 29.56 in 5.0 mi North 21.9 mph 28.8 mph 0.09 in Rain Rain
2:51 AM 55.0 °F 52.0 °F 89% 29.58 in 5.0 mi NNE 24.2 mph 36.8 mph 0.04 in Rain Light Rain
2:58 AM 55.4 °F 51.8 °F 88% 29.58 in 6.0 mi North 19.6 mph 31.1 mph 0.00 in Rain Light Rain
3:15 AM 55.4 °F 51.8 °F 88% 29.58 in 7.0 mi North 17.3 mph 27.6 mph 0.01 in Rain Light Rain
3:51 AM 55.0 °F 52.0 °F 89% 29.60 in 10.0 mi North 17.3 mph - 0.02 in Rain Light Rain
4:51 AM 55.0 °F 51.1 °F 86% 29.62 in 10.0 mi North 18.4 mph 28.8 mph 0.00 in   Overcast
5:51 AM 54.0 °F 51.1 °F 90% 29.66 in 9.0 mi North 19.6 mph 26.5 mph 0.00 in Rain Light Rain
6:51 AM 55.0 °F 51.1 °F 86% 29.67 in 10.0 mi North 18.4 mph - 0.00 in   Mostly Cloudy
7:51 AM 55.9 °F 51.1 °F 84% 29.69 in 10.0 mi North 20.7 mph 26.5 mph N/A   Mostly Cloudy
8:51 AM 57.9 °F 50.0 °F 75% 29.71 in 10.0 mi North 16.1 mph 24.2 mph N/A   Mostly Cloudy
9:51 AM 59.0 °F 50.0 °F 72% 29.75 in 10.0 mi North 13.8 mph 21.9 mph N/A   Mostly Cloudy
10:24 AM 60.8 °F 50.0 °F 68% 29.78 in 10.0 mi North 13.8 mph - N/A   Mostly Cloudy
10:51 AM 60.1 °F 50.0 °F 69% 29.79 in 10.0 mi North 12.7 mph - N/A   Mostly Cloudy
11:19 AM 62.6 °F 51.8 °F 68% 29.79 in 10.0 mi North 13.8 mph - N/A   Mostly Cloudy
11:51 AM 62.1 °F 50.0 °F 65% 29.81 in 10.0 mi NNW 15.0 mph - N/A   Mostly Cloudy
12:51 PM 66.0 °F 50.0 °F 56% 29.80 in 10.0 mi North 12.7 mph 23.0 mph N/A   Mostly Cloudy
1:51 PM 69.1 °F 52.0 °F 54% 29.81 in 10.0 mi Variable 6.9 mph - N/A   Mostly Cloudy
2:51 PM 71.1 °F 52.0 °F 51% 29.80 in 10.0 mi NNW 5.8 mph - N/A   Mostly Cloudy
3:51 PM 66.9 °F 52.0 °F 59% 29.80 in 10.0 mi South 13.8 mph - N/A   Mostly Cloudy
4:51 PM 68.0 °F 52.0 °F 56% 29.81 in 10.0 mi SSW 12.7 mph - N/A   Mostly Cloudy
5:51 PM 66.0 °F 54.0 °F 65% 29.81 in 10.0 mi South 10.4 mph - N/A   Mostly Cloudy
6:51 PM 66.0 °F 55.9 °F 70% 29.82 in 10.0 mi SSW 11.5 mph - N/A   Mostly Cloudy
7:51 PM 64.0 °F 57.0 °F 78% 29.84 in 10.0 mi SSE 5.8 mph - N/A   Scattered Clouds
8:51 PM 64.0 °F 57.0 °F 78% 29.85 in 10.0 mi Calm Calm - N/A   Scattered Clouds
9:51 PM 66.9 °F 51.1 °F 57% 29.86 in 10.0 mi West 5.8 mph - N/A   Scattered Clouds
10:51 PM 66.9 °F 53.1 °F 61% 29.88 in 10.0 mi NW 11.5 mph - N/A   Scattered Clouds
11:51 PM 66.0 °F 54.0 °F 65% 29.89 in 10.0 mi WNW 11.5 mph - N/A   Scattered Clouds